{"data":{"norad_id":62412,"epoch":"2026-05-25T03:53:42.447840Z","epoch_age_seconds":61048,"freshness":"FRESH","line1":"1 62412U 24249D   26145.16229685  .01023341  56252-3  14187-2 0  9993","line2":"2 62412  42.9899  58.0302 0014203 225.9873 133.9837 16.05021964 81605","mean_motion":16.05021964,"eccentricity":0.0014203,"inclination_deg":42.9899,"raan_deg":58.0302,"arg_perigee_deg":225.9873,"mean_anomaly_deg":133.9837,"bstar":0.0014187,"rev_number":8160,"period_min":89.718398395699,"perigee_km":251.10573190679,"apogee_km":269.96354255951,"semimajor_km":6638.6716372332,"source":"CELESTRAK","updated_at":"2026-05-25T13:38:19.652621Z"}}